This is the latest recevied weather packets stored in our database for station/object HS5BOG-13. If no packets are shown the sender has not sent any weather packets the latest 10 day(s).
| Time | Temp. | Humidity | Pressure | Rain* | Wind** | Luminosity | Snow |
|---|---|---|---|---|---|---|---|
| 1777988949 | 30° C | 78% | 991.4 hPa | - | - | - | - |
| 1777988342 | 30.56° C | 78% | 991 hPa | - | - | - | - |
| 1777987737 | 30° C | 82% | 990.9 hPa | - | - | - | - |
| 1777987131 | 30.56° C | 82% | 990.6 hPa | - | - | - | - |
| 1777986525 | 30.56° C | 84% | 990.5 hPa | - | - | - | - |
| 1777985919 | 30.56° C | 84% | 990.4 hPa | - | - | - | - |
| 1777985314 | 30.56° C | 82% | 990.1 hPa | - | - | - | - |
| 1777984708 | 30.56° C | 85% | 990 hPa | - | - | - | - |
| 1777984102 | 30.56° C | 83% | 989.8 hPa | - | - | - | - |
| 1777983497 | 30.56° C | 83% | 989.6 hPa | - | - | - | - |
| 1777982891 | 30.56° C | 82% | 989.6 hPa | - | - | - | - |
| 1777982285 | 30.56° C | 82% | 989.6 hPa | - | - | - | - |
| 1777981680 | 30.56° C | 80% | 989.5 hPa | - | - | - | - |
| 1777981074 | 30.56° C | 75% | 989.4 hPa | - | - | - | - |
| 1777980468 | 31.11° C | 76% | 989.3 hPa | - | - | - | - |
| 1777979863 | 30.56° C | 75% | 989.3 hPa | - | - | - | - |
| 1777979257 | 30.56° C | 71% | 989.3 hPa | - | - | - | - |
| 1777978652 | 31.11° C | 69% | 989.3 hPa | - | - | - | - |
| 1777978046 | 31.11° C | 69% | 989.4 hPa | - | - | - | - |
| 1777977441 | 31.11° C | 71% | 989.5 hPa | - | - | - | - |
| 1777976835 | 31.11° C | 70% | 989.6 hPa | - | - | - | - |
| 1777976229 | 31.11° C | 71% | 989.5 hPa | - | - | - | - |
| 1777975624 | 31.11° C | 71% | 989.4 hPa | - | - | - | - |
| 1777975018 | 30.56° C | 69% | 989.4 hPa | - | - | - | - |
| 1777974412 | 30.56° C | 70% | 989.3 hPa | - | - | - | - |
* Rain since midnight (hover to see other rain measurements)
** Current wind speed in m/s (hover to see current wind gust speed)